EWG1B EDNY-EDDM

Flight info

Callsign EWG1B
Flight time 0h 27m
Altitude 17000
Route BEMKI1E BEMKI T103 BETOS BETOS1B
Aircraft A320/M-SDE3FGHIRWY/LB1

Departure

Time 2026-05-04 19:55
Airport Bodensee Airport Friedrichshafen (EDNY)

Arrival

Time 2026-05-04 20:22
Airport Munich Airport (EDDM)
Time Latitude Longitude Altitude Speed Heading
2026-05-04 19:38 47.67337 9.52316 1369 ft 0 kts 193°
2026-05-04 19:50 47.67326 9.52300 1367 ft 6 kts 236°
2026-05-04 19:50 47.67324 9.52298 1367 ft 0 kts 229°
2026-05-04 19:51 47.67332 9.52312 1367 ft 3 kts 229°
2026-05-04 19:51 47.67339 9.52332 1368 ft 0 kts 283°
2026-05-04 19:51 47.67339 9.52328 1368 ft 3 kts 285°
2026-05-04 19:51 47.67355 9.52229 1367 ft 12 kts 265°
2026-05-04 19:52 47.67324 9.52124 1367 ft 12 kts 239°
2026-05-04 19:52 47.67284 9.52023 1367 ft 12 kts 240°
2026-05-04 19:52 47.67215 9.51835 1365 ft 29 kts 238°
2026-05-04 19:52 47.67109 9.51566 1362 ft 31 kts 239°
2026-05-04 19:53 47.66997 9.51277 1358 ft 33 kts 240°
2026-05-04 19:53 47.66878 9.50968 1353 ft 35 kts 240°
2026-05-04 19:53 47.66720 9.50710 1351 ft 33 kts 214°
2026-05-04 19:53 47.66588 9.50449 1349 ft 32 kts 240°
2026-05-04 19:54 47.66479 9.50152 1346 ft 32 kts 255°
2026-05-04 19:54 47.66560 9.49855 1344 ft 30 kts 320°
2026-05-04 19:54 47.66672 9.49959 1348 ft 23 kts 60°
2026-05-04 19:54 47.66857 9.50437 1351 ft 90 kts 60°
2026-05-04 19:55 47.67275 9.51522 1365 ft 149 kts 61°
2026-05-04 19:55 47.67814 9.52956 1862 ft 161 kts 62°
2026-05-04 19:55 47.68373 9.54402 2587 ft 164 kts 58°
2026-05-04 19:55 47.68979 9.55949 3066 ft 184 kts 57°
2026-05-04 19:56 47.69664 9.57689 3479 ft 207 kts 57°
2026-05-04 19:56 47.70417 9.59612 4029 ft 221 kts 58°
2026-05-04 19:56 47.71153 9.61646 4667 ft 230 kts 69°
2026-05-04 19:56 47.71520 9.64064 5063 ft 253 kts 80°
2026-05-04 19:57 47.71818 9.66749 5613 ft 272 kts 82°
2026-05-04 19:57 47.72115 9.69553 6490 ft 277 kts 83°
2026-05-04 19:57 47.72412 9.72399 7316 ft 283 kts 84°
2026-05-04 19:57 47.72718 9.75329 8098 ft 290 kts 85°
2026-05-04 19:58 47.73030 9.78320 8934 ft 296 kts 85°
2026-05-04 19:58 47.73350 9.81364 9774 ft 301 kts 86°
2026-05-04 19:58 47.73680 9.84551 10125 ft 324 kts 85°
2026-05-04 19:58 47.74034 9.87986 10380 ft 348 kts 85°
2026-05-04 19:59 47.74416 9.91667 10581 ft 372 kts 84°
2026-05-04 19:59 47.74818 9.95523 10709 ft 395 kts 84°
2026-05-04 19:59 47.75251 9.99661 10852 ft 414 kts 84°
2026-05-04 19:59 47.75705 10.03949 11236 ft 424 kts 84°
2026-05-04 20:00 47.76165 10.08302 11807 ft 429 kts 83°
2026-05-04 20:00 47.76626 10.12702 12366 ft 432 kts 83°
2026-05-04 20:00 47.77084 10.17128 12942 ft 435 kts 83°
2026-05-04 20:00 47.77537 10.21547 13801 ft 430 kts 83°
2026-05-04 20:01 47.77986 10.25957 14408 ft 431 kts 83°
2026-05-04 20:01 47.78434 10.30380 14919 ft 435 kts 83°
2026-05-04 20:01 47.78976 10.34822 15405 ft 440 kts 76°
2026-05-04 20:01 47.80074 10.39108 15833 ft 446 kts 69°
2026-05-04 20:02 47.81276 10.43376 15975 ft 447 kts 68°
2026-05-04 20:02 47.82487 10.47639 15999 ft 447 kts 68°
2026-05-04 20:02 47.83702 10.51895 15996 ft 447 kts 68°
2026-05-04 20:02 47.84917 10.56159 16002 ft 447 kts 68°
2026-05-04 20:03 47.86126 10.60420 16001 ft 447 kts 68°
2026-05-04 20:03 47.87327 10.64677 15997 ft 439 kts 68°
2026-05-04 20:03 47.88483 10.68787 15820 ft 423 kts 69°
2026-05-04 20:03 47.89598 10.72766 15641 ft 408 kts 69°
2026-05-04 20:04 47.90671 10.76600 15497 ft 394 kts 69°
2026-05-04 20:04 47.91707 10.80309 15350 ft 381 kts 69°
2026-05-04 20:04 47.92710 10.83907 15203 ft 372 kts 69°
2026-05-04 20:04 47.93696 10.87448 15058 ft 369 kts 69°
2026-05-04 20:05 47.94675 10.90974 14909 ft 367 kts 69°
2026-05-04 20:05 47.95650 10.94492 14760 ft 366 kts 69°
2026-05-04 20:05 47.96611 10.97954 14617 ft 366 kts 69°
2026-05-04 20:05 47.97576 11.01432 14473 ft 358 kts 70°
2026-05-04 20:06 47.98521 11.04839 14332 ft 353 kts 70°
2026-05-04 20:06 47.99452 11.08216 14186 ft 351 kts 70°
2026-05-04 20:06 48.00370 11.11589 14032 ft 350 kts 70°
2026-05-04 20:06 48.01297 11.14953 13889 ft 350 kts 69°
2026-05-04 20:07 48.02237 11.18304 13566 ft 349 kts 69°
2026-05-04 20:07 48.03171 11.21632 13194 ft 346 kts 69°
2026-05-04 20:07 48.04092 11.24936 12861 ft 344 kts 69°
2026-05-04 20:07 48.05013 11.28219 12567 ft 341 kts 69°
2026-05-04 20:08 48.05907 11.31499 12261 ft 339 kts 70°
2026-05-04 20:08 48.06758 11.34774 11946 ft 337 kts 71°
2026-05-04 20:08 48.07574 11.38046 11648 ft 335 kts 71°
2026-05-04 20:08 48.08374 11.41339 11354 ft 341 kts 72°
2026-05-04 20:09 48.09181 11.44694 11061 ft 344 kts 72°
2026-05-04 20:09 48.09990 11.48058 10790 ft 343 kts 72°
2026-05-04 20:09 48.10801 11.51421 10379 ft 344 kts 72°
2026-05-04 20:09 48.11612 11.54787 9843 ft 345 kts 72°
2026-05-04 20:10 48.12423 11.58161 9263 ft 345 kts 71°
2026-05-04 20:10 48.13233 11.61533 8679 ft 344 kts 71°
2026-05-04 20:10 48.14039 11.64899 8096 ft 343 kts 71°
2026-05-04 20:10 48.14842 11.68251 7550 ft 341 kts 71°
2026-05-04 20:11 48.15640 11.71589 7010 ft 340 kts 71°
2026-05-04 20:11 48.16422 11.74871 6490 ft 338 kts 71°
2026-05-04 20:11 48.17221 11.78217 5937 ft 336 kts 71°
2026-05-04 20:11 48.18021 11.81447 5387 ft 334 kts 66°
2026-05-04 20:12 48.19140 11.84457 5033 ft 326 kts 60°
2026-05-04 20:12 48.20280 11.87338 4965 ft 308 kts 60°
2026-05-04 20:12 48.21322 11.89978 4964 ft 289 kts 60°
2026-05-04 20:12 48.22319 11.92509 4980 ft 277 kts 60°
2026-05-04 20:13 48.23294 11.94992 4979 ft 276 kts 60°
2026-05-04 20:13 48.24264 11.97474 4981 ft 275 kts 60°
2026-05-04 20:13 48.25228 11.99952 4984 ft 275 kts 61°
2026-05-04 20:13 48.26193 12.02434 4978 ft 275 kts 60°
2026-05-04 20:14 48.27160 12.04911 4977 ft 275 kts 60°
2026-05-04 20:14 48.28128 12.07389 4974 ft 275 kts 60°
2026-05-04 20:14 48.29094 12.09859 4966 ft 269 kts 61°
2026-05-04 20:14 48.30010 12.12201 4964 ft 251 kts 61°
2026-05-04 20:15 48.30867 12.14390 4965 ft 236 kts 61°
2026-05-04 20:15 48.31686 12.16455 4965 ft 229 kts 58°
2026-05-04 20:15 48.32879 12.18027 4965 ft 233 kts 22°
2026-05-04 20:15 48.34460 12.18298 4964 ft 236 kts 350°
2026-05-04 20:16 48.35923 12.17293 4960 ft 228 kts 317°
2026-05-04 20:16 48.36785 12.15427 4960 ft 214 kts 287°
2026-05-04 20:16 48.36940 12.13300 4981 ft 196 kts 262°
2026-05-04 20:16 48.36796 12.11358 4987 ft 177 kts 262°
2026-05-04 20:17 48.36669 12.09644 4971 ft 156 kts 261°
2026-05-04 20:17 48.36550 12.08055 4944 ft 152 kts 261°
2026-05-04 20:17 48.36428 12.06482 4834 ft 151 kts 261°
2026-05-04 20:17 48.36302 12.04917 4693 ft 151 kts 261°
2026-05-04 20:18 48.36172 12.03358 4527 ft 151 kts 261°
2026-05-04 20:18 48.36037 12.01795 4295 ft 150 kts 261°
2026-05-04 20:18 48.35936 12.00226 4057 ft 151 kts 264°
2026-05-04 20:18 48.35839 11.98655 3817 ft 151 kts 264°
2026-05-04 20:19 48.35733 11.97083 3613 ft 151 kts 263°
2026-05-04 20:19 48.35617 11.95512 3424 ft 151 kts 263°
2026-05-04 20:19 48.35497 11.93940 3244 ft 152 kts 263°
2026-05-04 20:19 48.35382 11.92359 3061 ft 152 kts 263°
2026-05-04 20:20 48.35262 11.90780 2859 ft 152 kts 263°
2026-05-04 20:20 48.35144 11.89201 2656 ft 152 kts 264°
2026-05-04 20:20 48.35026 11.87628 2439 ft 150 kts 264°
2026-05-04 20:20 48.34906 11.86082 2255 ft 148 kts 265°
2026-05-04 20:21 48.34792 11.84559 2063 ft 145 kts 264°
2026-05-04 20:21 48.34673 11.83060 1868 ft 143 kts 264°
2026-05-04 20:21 48.34452 11.80115 1498 ft 142 kts 264°
2026-05-04 20:22 48.34352 11.78808 1487 ft 107 kts 263°
2026-05-04 20:22 48.34287 11.77951 1492 ft 64 kts 263°
2026-05-04 20:22 48.34244 11.77365 1492 ft 44 kts 271°
2026-05-04 20:22 48.34336 11.76992 1482 ft 36 kts 294°